| time (UTC) | temp C | wind direction | speed KPH | gust KPH | rain 1hr cm | rain 24hr cm | rain mn cm | humidity % | barometer mb |
| 20260503050046 | 27 | 135 | 3.2 | 0.0 | 0.00 | 0.03 | 0.03 | 62 | 1020.8 |
| 20260503044226 | 30 | 225 | 1.6 | 0.0 | 0.00 | 0.03 | 0.03 | 55 | 1020.7 |
| 20260503042356 | 32 | 67 | 1.6 | 0.0 | 0.00 | 0.03 | 0.03 | 50 | 1020.8 |
| 20260503040356 | 31 | 45 | 0.0 | 0.0 | 0.00 | 0.03 | 0.03 | 50 | 1020.9 |
| 20260503034756 | 29 | 180 | 3.2 | 0.0 | 0.00 | 0.08 | 0.03 | 56 | 1021.0 |
| 20260503032816 | 32 | 90 | 1.6 | 0.0 | 0.00 | 0.08 | 0.03 | 50 | 1021.0 |
| 20260503030931 | 28 | 135 | 3.2 | 0.0 | 0.00 | 0.08 | 0.03 | 59 | 1021.2 |
| 20260503025206 | 32 | 135 | 3.2 | 0.0 | 0.00 | 0.08 | 0.03 | 49 | 1021.4 |
| 20260503023536 | 30 | 135 | 1.6 | 0.0 | 0.00 | 0.08 | 0.03 | 55 | 1021.7 |
| 20260503021626 | 30 | 135 | 1.6 | 0.0 | 0.00 | 0.08 | 0.03 | 53 | 1022.0 |
| 20260503015848 | 27 | 45 | 0.0 | 0.0 | 0.00 | 0.08 | 0.03 | 62 | 1022.3 |
| 20260503013941 | 30 | 135 | 1.6 | 0.0 | 0.00 | 0.08 | 0.03 | 54 | 1022.5 |
| 20260503012207 | 27 | 135 | 1.6 | 0.0 | 0.00 | 0.08 | 0.03 | 64 | 1023.0 |
| 20260503010328 | 27 | 0 | 3.2 | 0.0 | 0.00 | 0.08 | 0.03 | 64 | 1023.2 |
| 20260503004501 | 29 | 45 | 1.6 | 0.0 | 0.00 | 0.08 | 0.03 | 58 | 1023.5 |
| 20260503002701 | 30 | 135 | 4.8 | 0.0 | 0.00 | 0.08 | 0.03 | 57 | 1023.6 |
| 20260503000736 | 30 | 180 | 1.6 | 0.0 | 0.00 | 0.08 | 0.03 | 57 | 1023.9 |
| 20260502235007 | 27 | 157 | 3.2 | 0.0 | 0.00 | 0.08 | 0.03 | 62 | 1024.1 |
| 20260502233126 | 29 | 180 | 1.6 | 0.0 | 0.00 | 0.10 | 0.03 | 56 | 1024.1 |
| 20260502231231 | 28 | 180 | 3.2 | 0.0 | 0.00 | 0.10 | 0.03 | 56 | 1024.3 |
| 20260502225331 | 27 | 180 | 0.0 | 0.0 | 0.00 | 0.10 | 0.03 | 59 | 1024.2 |
| 20260502223546 | 27 | 180 | 0.0 | 0.0 | 0.00 | 0.10 | 0.03 | 56 | 1024.1 |
| 20260502221816 | 25 | 180 | 1.6 | 0.0 | 0.00 | 0.10 | 0.03 | 62 | 1024.0 |
| 20260502220016 | 24 | 180 | 0.0 | 0.0 | 0.03 | 0.10 | 0.03 | 64 | 1023.9 |
| 20260502214106 | 20 | 225 | 0.0 | 0.0 | 0.03 | 0.10 | 0.03 | 76 | 1023.8 |
| 20260502212111 | 18 | 225 | 0.0 | 0.0 | 0.03 | 0.10 | 0.03 | 86 | 1023.7 |
| 20260502210316 | 17 | 180 | 0.0 | 0.0 | 0.00 | 0.08 | 0.00 | 90 | 1023.6 |
| 20260502204441 | 16 | 225 | 1.6 | 0.0 | 0.00 | 0.08 | 0.00 | 93 | 1023.4 |
| 20260502202451 | 16 | 225 | 0.0 | 0.0 | 0.00 | 0.10 | 0.00 | 96 | 1023.3 |
| 20260502194716 | 15 | 225 | 0.0 | 0.0 | 0.00 | 0.10 | 0.00 | 98 | 1022.9 |
| 20260502193116 | 16 | 0 | 0.0 | 0.0 | 0.00 | 0.10 | 0.00 | 97 | 1022.9 |
| 20260502191247 | 15 | 225 | 0.0 | 0.0 | 0.00 | 0.10 | 0.00 | 99 | 1022.9 |
| 20260502185416 | 15 | 270 | 0.0 | 0.0 | 0.00 | 0.10 | 0.00 | 99 | 1022.6 |
| 20260502183755 | 16 | 225 | 0.0 | 0.0 | 0.00 | 0.10 | 0.00 | 97 | 1022.6 |
| 20260502181841 | 16 | 270 | 0.0 | 0.0 | 0.00 | 0.13 | 0.00 | 96 | 1022.7 |
| 20260502163006 | 16 | 225 | 0.0 | 0.0 | 0.00 | 0.66 | 0.00 | 98 | 1023.0 |
| 20260502161057 | 16 | 0 | 0.0 | 0.0 | 0.00 | 0.86 | 0.00 | 100 | 1023.1 |
| 20260502151726 | 16 | 0 | 0.0 | 0.0 | 0.00 | 0.86 | 0.00 | 98 | 1023.5 |
| 20260502123501 | 18 | 0 | 0.0 | 0.0 | 0.00 | 0.86 | 0.86 | 98 | 1023.9 |
| 20260502121716 | 18 | 0 | 0.0 | 0.0 | 0.00 | 0.86 | 0.86 | 94 | 1024.2 |
| 20260502115926 | 19 | 180 | 0.0 | 0.0 | 0.00 | 0.89 | 0.86 | 92 | 1024.4 |
| 20260502114311 | 19 | 0 | 0.0 | 0.0 | 0.00 | 0.91 | 0.86 | 93 | 1024.1 |
| 20260502112541 | 19 | 0 | 0.0 | 0.0 | 0.00 | 0.91 | 0.86 | 93 | 1024.1 |
| 20260502110907 | 19 | 0 | 0.0 | 0.0 | 0.00 | 0.94 | 0.86 | 94 | 1024.1 |
| 20260502105311 | 19 | 0 | 0.0 | 0.0 | 0.00 | 0.94 | 0.86 | 94 | 1024.1 |
| 20260502070701 | 21 | 135 | 1.6 | 0.0 | 0.00 | 1.78 | 0.86 | 86 | 1022.4 |
| 20260502064806 | 22 | 135 | 1.6 | 0.0 | 0.00 | 1.78 | 0.86 | 87 | 1022.1 |
| 20260502063029 | 23 | 135 | 1.6 | 0.0 | 0.00 | 1.78 | 0.86 | 83 | 1022.0 |
| 20260502061421 | 22 | 135 | 0.0 | 0.0 | 0.00 | 1.78 | 0.86 | 84 | 1022.1 |
| 20260502055709 | 22 | 135 | 1.6 | 0.0 | 0.00 | 1.78 | 0.86 | 82 | 1022.1 |
| 20260502053941 | 23 | 135 | 1.6 | 0.0 | 0.00 | 1.78 | 0.86 | 82 | 1022.0 |
| 20260502052046 | 23 | 180 | 1.6 | 0.0 | 0.00 | 1.78 | 0.86 | 79 | 1022.1 |